OBJECT B, 47855

Orbit data source: Space-Track

You're viewing an Uncataloged Satellite

Recently launched and/or uncataloged satellites may have evolving metadata. Metadata may include but not limited to: Owner, Maufacturer, Bus, Motor, and Mission.

OBJECT B, 47855 is a satellite owned by CNSA (CN) in LEO that was launched on Sat, 13 Mar 2021 UTC launched from the Jiuquan Satellite Launch Center, China (JSC). Unknown objects in Earth's orbit typically refer to objects detected orbiting the Earth but have not yet been identified or cataloged. These objects could be anything from previously untracked satellites, spent rocket stages, debris from satellite collisions, or even natural meteoroids temporarily captured by Earth's gravity.

Loading next visibility...
Identifier
47855, 2021-020B
Orbit
LEO
Country
Flag of CNCN / PRC
Related business
Manufacturer
Unknown
Mission
Spacecraft
Bus & Motor
Unknown
Mass
Unknown
Launch date (UTC)
2021-03-13 (5 years ago)
Launch vehicle
Unknown
Launch site
Jiuquan Satellite Launch Center, China (JSC)
Object type
Unknown
Shape & HBR
Unknown shape, 2.1 m
Radar Cross Section
Large (>1 m²)

Expand to show TLE details & history
Last TLE update: 22 hours ago

TLE from 22 hours ago
0 OBJECT B
1 47855U 21020B   26172.50231418  .00000052  00000-0  22386-3 0  9997
2 47855  63.4082 258.7152 0170903   1.1016 359.0353 13.44249814258769
Epoch: 2026-06-21T12:03Z
TLE epoch observation values (Epoch: 2026-06-21T12:03:19.945Z)
Latitude
-0.00001°
Longitude
168.18043°
Altitude
967.57 km
Speed
7.431 km/s
True Right ascension
17h 14m 51s
True Declination
0° 00' 00"
Sunlit
Object was in full shadow at epoch
Visualization orbit readout
Latitude
Unknown
Longitude
Unknown
Altitude
Unknown
Speed
Unknown
Apparent Right ascension
Unknown
Apparent Declination
Unknown
Sunlit
N/A
Visualization observer readout
Local Sidereal Time
21:29:23
Azimuth
Unknown
Elevation
Unknown
Doppler factor
Unknown
Orbital elements
Apogee altitude
1,219.991 km
Perigee altitude
964.646 km
Semi-major axis
7,470.456 km
Eccentricity
0.01709
Inclination
63.4082°
RAAN
258.7152°
Arg. of periapsis
1.1016°
True anomaly
359.00161°
Mean anomaly
359.0353°
Eccentric anomaly
359.01853°
Mean motion
3.36142 °/min
Orbital period
107.1 mins
BSTAR
0.00022386
Loading maneuver chart data...
Computing Atmospheric mass density...
Loading historical data...
Loading historical data...
Loading historical data...
Loading historical data...
Loading historical data...
Loading historical data...
Loading historical data...
Other satellites on launch #20 in the year 2021 (2021-03-13 UTC)

Documentation

Showing up to 5 results
|